TimeEDT,TemperatureF,Dew PointF,Humidity,Sea Level PressureIn,VisibilityMPH,Wind Direction,Wind SpeedMPH,Gust SpeedMPH,PrecipitationIn,Events,Conditions,WindDirDegrees,DateUTC
12:16 AM,68.0,64.4,88,29.62,7.0,East,11.5,-,N/A,Rain,Rain,100,2013-06-13 04:16:00
12:36 AM,68.0,66.2,94,29.59,2.0,ENE,6.9,-,N/A,Rain,Heavy Rain,60,2013-06-13 04:36:00
12:56 AM,66.2,66.2,100,29.61,3.0,North,8.1,-,N/A,Rain,Heavy Rain,10,2013-06-13 04:56:00
1:16 AM,68.0,66.2,94,29.64,1.8,West,13.8,-,N/A,Rain,Heavy Rain,270,2013-06-13 05:16:00
1:36 AM,66.2,66.2,100,29.63,3.0,NW,12.7,-,N/A,Rain,Heavy Rain,310,2013-06-13 05:36:00
2:11 AM,66.2,64.4,94,29.59,7.0,NNE,5.8,-,N/A,Rain,Rain,30,2013-06-13 06:11:00
2:32 AM,66.2,64.4,94,29.54,10.0,NNE,5.8,-,N/A,Rain,Rain,20,2013-06-13 06:32:00
2:52 AM,66.2,64.4,94,29.49,10.0,ENE,12.7,20.7,N/A,Rain,Light Rain,60,2013-06-13 06:52:00
3:12 AM,66.2,64.4,94,29.54,10.0,Calm,Calm,-,N/A,,Scattered Clouds,0,2013-06-13 07:12:00
3:32 AM,66.2,64.4,94,29.55,10.0,Calm,Calm,-,N/A,,Mostly Cloudy,0,2013-06-13 07:32:00
3:52 AM,66.2,64.4,94,29.53,10.0,SW,4.6,-,N/A,,Overcast,220,2013-06-13 07:52:00
4:12 AM,66.2,64.4,94,29.54,10.0,NNW,3.5,-,N/A,,Overcast,330,2013-06-13 08:12:00
4:32 AM,66.2,64.4,94,29.54,10.0,North,9.2,-,N/A,Rain,Light Rain,360,2013-06-13 08:32:00
4:52 AM,66.2,64.4,94,29.54,10.0,NNE,5.8,-,N/A,Rain,Light Rain,30,2013-06-13 08:52:00
5:13 AM,66.2,64.4,94,29.55,7.0,NNE,4.6,-,N/A,,Drizzle,30,2013-06-13 09:13:00
5:33 AM,66.2,64.4,94,29.58,10.0,Calm,Calm,-,N/A,Rain,Light Rain,0,2013-06-13 09:33:00
5:53 AM,66.2,64.4,94,29.60,4.0,North,8.1,-,N/A,Rain,Heavy Rain,350,2013-06-13 09:53:00
6:13 AM,66.2,64.4,94,29.60,7.0,North,9.2,18.4,N/A,Rain,Light Rain,360,2013-06-13 10:13:00
6:33 AM,64.4,62.6,94,29.62,5.0,North,9.2,-,N/A,,Drizzle,360,2013-06-13 10:33:00
6:53 AM,64.4,64.4,100,29.62,4.0,North,9.2,-,N/A,,Drizzle,350,2013-06-13 10:53:00
7:13 AM,64.4,64.4,100,29.64,4.0,North,10.4,-,N/A,Rain,Rain,360,2013-06-13 11:13:00
7:33 AM,64.4,60.8,88,29.64,10.0,North,11.5,18.4,N/A,,Drizzle,10,2013-06-13 11:33:00
7:53 AM,64.4,59.0,83,29.65,10.0,NNE,8.1,16.1,N/A,,Overcast,30,2013-06-13 11:53:00
8:14 AM,64.4,59.0,83,29.67,10.0,North,10.4,-,N/A,Rain,Light Rain,350,2013-06-13 12:14:00
8:34 AM,64.4,60.8,88,29.67,10.0,North,8.1,-,N/A,Rain,Light Rain,360,2013-06-13 12:34:00
8:54 AM,64.4,60.8,88,29.69,10.0,North,6.9,-,N/A,,Overcast,350,2013-06-13 12:54:00
9:14 AM,64.4,59.0,83,29.69,10.0,NNW,6.9,-,N/A,,Overcast,340,2013-06-13 13:14:00
9:34 AM,64.4,59.0,83,29.71,10.0,NNW,6.9,-,N/A,,Overcast,340,2013-06-13 13:34:00
9:54 AM,64.4,60.8,88,29.71,10.0,NNW,8.1,-,N/A,,Overcast,330,2013-06-13 13:54:00
10:14 AM,66.2,60.8,83,29.71,10.0,NNW,10.4,-,N/A,,Overcast,330,2013-06-13 14:14:00
10:34 AM,66.2,60.8,83,29.71,10.0,NNW,8.1,-,N/A,,Mostly Cloudy,340,2013-06-13 14:34:00
10:55 AM,69.8,62.6,78,29.72,10.0,NNW,8.1,-,N/A,,Scattered Clouds,340,2013-06-13 14:55:00
11:15 AM,71.6,60.8,69,29.72,10.0,NW,10.4,-,N/A,,Clear,310,2013-06-13 15:15:00
11:35 AM,73.4,60.8,65,29.73,10.0,NNW,10.4,16.1,N/A,,Clear,330,2013-06-13 15:35:00
11:55 AM,73.4,60.8,65,29.73,10.0,North,10.4,-,N/A,,Clear,350,2013-06-13 15:55:00
12:15 PM,75.2,59.0,57,29.74,10.0,NNW,12.7,19.6,N/A,,Clear,330,2013-06-13 16:15:00
12:35 PM,75.2,57.2,53,29.74,10.0,North,13.8,18.4,N/A,,Clear,350,2013-06-13 16:35:00
12:55 PM,75.2,55.4,50,29.74,10.0,North,17.3,20.7,N/A,,Clear,350,2013-06-13 16:55:00
1:16 PM,75.2,57.2,53,29.75,10.0,North,15.0,21.9,N/A,,Scattered Clouds,360,2013-06-13 17:16:00
1:36 PM,77.0,57.2,50,29.75,10.0,North,16.1,21.9,N/A,,Scattered Clouds,350,2013-06-13 17:36:00
1:56 PM,77.0,57.2,50,29.75,10.0,NNW,12.7,-,N/A,,Scattered Clouds,330,2013-06-13 17:56:00
2:16 PM,78.8,57.2,47,29.76,10.0,NNW,11.5,20.7,N/A,,Clear,340,2013-06-13 18:16:00
2:36 PM,78.8,57.2,47,29.76,10.0,North,12.7,23.0,N/A,,Clear,350,2013-06-13 18:36:00
2:56 PM,78.8,57.2,47,29.77,10.0,NW,13.8,20.7,N/A,,Scattered Clouds,320,2013-06-13 18:56:00
3:16 PM,78.8,57.2,47,29.78,10.0,NNW,15.0,24.2,N/A,,Scattered Clouds,340,2013-06-13 19:16:00
3:31 PM,78.8,57.2,47,29.78,10.0,North,15.0,23.0,N/A,,Scattered Clouds,350,2013-06-13 19:31:00
3:51 PM,78.8,59.0,51,29.78,10.0,NNW,12.7,18.4,N/A,,Scattered Clouds,340,2013-06-13 19:51:00
4:12 PM,77.0,55.4,47,29.79,10.0,NNW,12.7,24.2,N/A,,Scattered Clouds,340,2013-06-13 20:12:00
4:32 PM,78.8,57.2,47,29.79,10.0,North,13.8,20.7,N/A,,Scattered Clouds,350,2013-06-13 20:32:00
4:52 PM,78.8,57.2,47,29.80,10.0,North,16.1,21.9,N/A,,Clear,350,2013-06-13 20:52:00
5:12 PM,78.8,57.2,47,29.80,10.0,NNW,10.4,-,N/A,,Clear,340,2013-06-13 21:12:00
5:32 PM,78.8,57.2,47,29.80,10.0,North,10.4,16.1,N/A,,Clear,350,2013-06-13 21:32:00
5:52 PM,78.8,55.4,44,29.80,10.0,NNW,11.5,17.3,N/A,,Clear,340,2013-06-13 21:52:00
6:12 PM,78.8,55.4,44,29.81,10.0,NNW,13.8,-,N/A,,Clear,330,2013-06-13 22:12:00
6:32 PM,78.8,55.4,44,29.81,10.0,NNW,13.8,17.3,N/A,,Clear,330,2013-06-13 22:32:00
6:53 PM,77.0,55.4,47,29.81,10.0,NNW,16.1,-,N/A,,Clear,330,2013-06-13 22:53:00
7:13 PM,77.0,55.4,47,29.82,10.0,North,9.2,-,N/A,,Clear,350,2013-06-13 23:13:00
7:33 PM,75.2,55.4,50,29.83,10.0,North,10.4,16.1,N/A,,Scattered Clouds,350,2013-06-13 23:33:00
7:53 PM,75.2,55.4,50,29.84,10.0,North,10.4,-,N/A,,Scattered Clouds,350,2013-06-13 23:53:00
7:58 PM,75.2,55.4,50,29.84,10.0,NNW,9.2,-,N/A,,Scattered Clouds,340,2013-06-13 23:58:00
8:33 PM,73.4,55.4,53,29.85,10.0,NNW,5.8,-,N/A,,Clear,340,2013-06-14 00:33:00
8:53 PM,71.6,57.2,60,29.85,10.0,NW,3.5,-,N/A,,Scattered Clouds,320,2013-06-14 00:53:00
9:13 PM,69.8,59.0,68,29.86,10.0,Calm,Calm,-,N/A,,Scattered Clouds,0,2013-06-14 01:13:00
9:34 PM,69.8,60.8,73,29.86,10.0,Calm,Calm,-,N/A,,Scattered Clouds,0,2013-06-14 01:34:00
9:54 PM,69.8,60.8,73,29.87,10.0,Calm,Calm,-,N/A,,Mostly Cloudy,0,2013-06-14 01:54:00
10:14 PM,69.8,60.8,73,29.88,10.0,Calm,Calm,-,N/A,,Overcast,0,2013-06-14 02:14:00
10:34 PM,69.8,60.8,73,29.89,10.0,North,3.5,-,N/A,,Mostly Cloudy,350,2013-06-14 02:34:00
10:54 PM,68.0,60.8,78,29.89,10.0,Calm,Calm,-,N/A,,Scattered Clouds,0,2013-06-14 02:54:00
11:14 PM,68.0,60.8,78,29.90,10.0,Calm,Calm,-,N/A,,Scattered Clouds,0,2013-06-14 03:14:00
11:34 PM,68.0,60.8,78,29.91,10.0,Calm,Calm,-,N/A,,Scattered Clouds,0,2013-06-14 03:34:00
11:54 PM,68.0,60.8,78,29.92,10.0,Calm,Calm,-,N/A,,Mostly Cloudy,0,2013-06-14 03:54:00